Location: Bothwell
(42.3833°S, 147.0000°E)
Time: 20:20:06
(UTC+11:00)

First-Move - Pass Details

Date: 28 September 2022
Orbit: 570 x 653 km, 97.7° (Epoch: 25 November)

Event Time Altitude Azimuth Distance (km) Brightness Sun altitude
Exits shadow 03:00:43 36° 164° (SSE) 1,048 ? -30.4°
Drops below altitude 10° 03:03:39 10° 184° (S) 2,104 ? -29.9°
Enters shadow 04:14:39 -36° 359° (N) 8,374 ? -18.3°
